Port Angeles, WA
on Monday, February 11, 2013

Monday
Previous Day Next Day
Daily Summary
 ActualAverageRecord
Temperature
Mean Temperature °F °F  
Max Temperature 46°F 48°F 62°F (1983)
Min Temperature 41°F 36°F 26°F (1981)
Degree Days
Heating Degree Days 22    
Moisture
Dew Point 40°F   
Average Humidity 88    
Maximum Humidity 96    
Minimum Humidity 76    
Precipitation
Precipitation 0.00 in in in ()
Wind
Wind Speed 3 mph   
Max Wind Speed 7 mph   
Max Gust Speed mph   
Visibility 9 miles   
Events Rain   
Averages and records for this station are not official NWS values.
Key: T is trace of precipitation, MM is missing value
Source: NWS Daily Summary
Seasonal Weather Averages
Time(PST)TemperatureDew PointHumidity Pressure Visibility Wind DirectionWind SpeedGust SpeedPrecipitationEvents Conditions
12:31 AM 42.1°F 37.0°F 82% 30.32 in 10.0 miles SW 3.5 mph - N/A   Overcast
12:53 AM 43.0°F 37.9°F 82% 30.34 in 10.0 miles West 4.6 mph - N/A   Overcast
1:53 AM 42.1°F 37.0°F 82% 30.34 in 10.0 miles SW 3.5 mph - N/A   Overcast
2:03 AM 41.0°F 36.0°F 82% 30.33 in 10.0 miles Calm Calm - N/A   Mostly Cloudy
2:53 AM 41.0°F 37.0°F 86% 30.33 in 10.0 miles Calm Calm - N/A   Overcast
3:14 AM 42.1°F 37.0°F 82% 30.32 in 10.0 miles SW 3.5 mph - N/A   Overcast
3:53 AM 42.1°F 37.0°F 82% 30.32 in 10.0 miles WNW 3.5 mph - N/A   Overcast
4:51 AM 42.8°F 35.6°F 76% 30.30 in 10.0 miles WSW 6.9 mph - N/A   Overcast
4:53 AM 43.0°F 36.0°F 76% 30.31 in 10.0 miles WSW 5.8 mph - N/A   Overcast
5:53 AM 42.1°F 36.0°F 79% 30.32 in 10.0 miles West 3.5 mph - N/A   Overcast
6:53 AM 43.0°F 37.0°F 80% 30.31 in 10.0 miles Calm Calm - N/A   Overcast
7:01 AM 43.0°F 37.9°F 82% 30.30 in 10.0 miles Calm Calm - 0.00 in Rain Light Rain
7:53 AM 42.1°F 39.0°F 89% 30.31 in 6.0 miles ESE 4.6 mph - 0.00 in   Overcast
8:13 AM 41.0°F 39.0°F 93% 30.31 in 1.8 miles SSE 3.5 mph - N/A   Overcast
8:53 AM 42.1°F 39.9°F 92% 30.32 in 2.5 miles Calm Calm - 0.00 in   Overcast
9:06 AM 42.1°F 41.0°F 96% 30.31 in 1.5 miles Calm Calm - N/A   Overcast
9:29 AM 43.0°F 41.0°F 93% 30.32 in 2.0 miles WSW 3.5 mph - 0.00 in Rain Light Rain
9:41 AM 43.0°F 41.0°F 93% 30.32 in 3.0 miles WSW 3.5 mph - 0.00 in   Overcast
9:53 AM 43.0°F 41.0°F 93% 30.33 in 3.0 miles West 4.6 mph - 0.00 in   Overcast
10:14 AM 44.1°F 41.0°F 89% 30.32 in 5.0 miles West 3.5 mph - 0.00 in   Overcast
10:21 AM 44.1°F 41.0°F 89% 30.31 in 5.0 miles Calm Calm - 0.00 in   Overcast
10:36 AM 45.0°F 42.1°F 90% 30.31 in 10.0 miles Calm Calm - 0.00 in Rain Light Rain
10:53 AM 46.9°F 42.1°F 83% 30.32 in 10.0 miles Variable 3.5 mph - 0.00 in   Overcast
11:14 AM 44.1°F 42.1°F 93% 30.32 in 10.0 miles NNE 4.6 mph - N/A   Overcast
11:32 AM 44.1°F 42.1°F 93% 30.32 in 10.0 miles Calm Calm - N/A   Overcast
11:53 AM 44.1°F 42.1°F 93% 30.33 in 10.0 miles Calm Calm - N/A   Overcast
12:24 PM 46.0°F 42.1°F 86% 30.31 in 10.0 miles Calm Calm - N/A   Overcast
12:53 PM 46.0°F 43.0°F 89% 30.32 in 10.0 miles NE 4.6 mph - N/A   Overcast
1:53 PM 46.9°F 42.1°F 83% 30.31 in 10.0 miles East 3.5 mph - N/A   Overcast
2:53 PM 46.9°F 42.1°F 83% 30.32 in 10.0 miles Calm Calm - N/A   Overcast
3:00 PM 46.9°F 43.0°F 86% 30.31 in 10.0 miles Calm Calm - N/A   Overcast
3:53 PM 46.0°F 42.1°F 86% 30.32 in 10.0 miles NE 3.5 mph - N/A   Overcast
4:29 PM 45.0°F 42.1°F 90% 30.32 in 10.0 miles NNW 3.5 mph - N/A   Overcast
4:53 PM 46.0°F 42.1°F 86% 30.33 in 10.0 miles WNW 4.6 mph - N/A   Overcast
5:35 PM 46.0°F 42.1°F 86% 30.32 in 10.0 miles Calm Calm - N/A   Overcast
5:53 PM 46.0°F 42.1°F 86% 30.33 in 10.0 miles West 4.6 mph - N/A   Overcast
6:39 PM 45.0°F 42.1°F 90% 30.32 in 10.0 miles WNW 4.6 mph - N/A   Overcast
6:53 PM 45.0°F 42.1°F 90% 30.33 in 10.0 miles WNW 6.9 mph - N/A   Overcast
7:11 PM 45.0°F 42.1°F 90% 30.32 in 10.0 miles NW 5.8 mph - N/A   Overcast
7:53 PM 44.1°F 42.1°F 93% 30.32 in 10.0 miles Calm Calm - N/A   Mostly Cloudy
8:01 PM 44.1°F 42.1°F 93% 30.31 in 10.0 miles Calm Calm - N/A   Mostly Cloudy
8:20 PM 43.0°F 39.9°F 89% 30.32 in 10.0 miles WNW 3.5 mph - N/A   Overcast
8:39 PM 43.0°F 41.0°F 93% 30.32 in 10.0 miles SSW 3.5 mph - N/A   Scattered Clouds
8:50 PM 42.8°F 41.0°F 93% 30.32 in 10.0 miles WSW 3.5 mph - N/A   Mostly Cloudy
8:53 PM 43.0°F 41.0°F 93% 30.33 in 10.0 miles SW 4.6 mph - N/A   Mostly Cloudy
9:15 PM 42.1°F 39.9°F 92% 30.32 in 10.0 miles Calm Calm - N/A   Scattered Clouds
9:46 PM 41.0°F 39.9°F 96% 30.33 in 10.0 miles West 3.5 mph - N/A   Overcast
9:53 PM 42.1°F 39.9°F 92% 30.34 in 10.0 miles West 4.6 mph - N/A   Overcast
10:53 PM 43.0°F 39.0°F 86% 30.34 in 10.0 miles SSW 3.5 mph - N/A   Overcast
11:33 PM 43.0°F 39.0°F 86% 30.33 in 10.0 miles WSW 3.5 mph - N/A   Overcast
11:53 PM 43.0°F 37.9°F 82% 30.34 in 10.0 miles SW 4.6 mph - N/A   Overcast
Moon Phase
Feb. 11 Feb. 17 Feb. 25 Mar. 04 Mar. 11
Sunrise:07:26 AM (PST) Moon Rise:07:42 AM (PST)2/11
Sunset:05:30 PM (PST) Moon Set:07:47 PM (PST)2/11

Copyright © 2014 The Weather Underground, Inc.